Regional Weather Roundup
Issued by NWS Upton, NY

Current Version | Previous Version | Text Only | Print | Product List | Glossary On
Versions: 1 2 3 4 5 6 7 8 9 10 11 12 13 14 15 16 17 18 19 20 21 22 23 24 25 26 27
000
ASUS41 KOKX 200505
RWROKX

Regional Weather Roundup
National Weather Service New York NY
1200 AM EST TUE FEB 20 2018

Note: "FAIR" indicates few or no clouds below 12,000 feet with no
significant weather and/or obstructions to visibility.

NYZ071-072-176-178-NJZ106-104-200600-
New York City Metro Area

CITY           SKY/WX    TMP DP  RH WIND       PRES   REMARKS
Central Park   FOG       47  47 100 CALM      30.33F VSB 1
Bronx Bot Gard   N/A     45  45 100 S2        30.30F
Bronx Lehman C   N/A     46  46 100 SE3         N/A
LaGuardia Arpt DRZL/FOG  47  46  97 SE5       30.30F VSB 1/2
Queens College   N/A     46  46 100 S5          N/A
Kennedy Intl   FOG       44  44 100 S6        30.33F VSB 1/8
Breezy Point     N/A     43 N/A N/A NE2         N/A
Brooklyn Coll    N/A     46  45  93 SE1         N/A
Staten Island    N/A     46  45  93 CALM        N/A
Newark/Liberty DRZL/FOG  46  46 100 CALM      30.31F VSB 1/4
Teterboro      DRZL/FOG  45  45 100 CALM      30.30F VSB 1/4
$$

NYZ177-179-078>081-200600-
Long Island New York

CITY           SKY/WX    TMP DP  RH WIND       PRES   REMARKS
Jones Beach      N/A     43 N/A N/A S12         N/A
Wantagh          N/A     45  45 100 S6          N/A
Hempstead      NOT AVBL
Matinecock Pt    N/A     46 N/A N/A S2          N/A
Farmingdale    FOG       46  46 100 SW9       30.33F VSB 1/2
MacArthur/ISP  DRZL/FOG  47  47 100 SW9       30.33F VSB 3/4
Shirley        CLOUDY    48  48 100 S7        30.34F FOG
Mt Sinai Harb    N/A    N/A N/A N/A S12G18      N/A
Westhampton    CLOUDY    47  47 100 SW6       30.35F FOG
East Hampton   CLOUDY    47  46  96 SW7       30.34F FOG
Southold         N/A     50  50 100 SW10        N/A
Montauk          N/A     50  49  96 SW15G24   30.35
$$

NYZ052-065-067-200600-
Hudson Valley

CITY           SKY/WX    TMP DP  RH WIND       PRES   REMARKS
White Plains   FOG       41  41 100 SE3       30.29F VSB 1/4
Larchmont Harb   N/A     43 N/A N/A SE5         N/A
Croton On Huds   N/A     41 N/A N/A MISG        N/A
Somers           N/A     39  39 100 NW1         N/A
Brewster         N/A     39  39 100 CALM        N/A
Newburgh       FOG       39  39 100 CALM      30.31S VSB 1
Montgomery     FOG       36  36 100 SE3       30.28F VSB 1/4
Otisville        N/A     37  37 100 S2          N/A
Warwick          N/A     39  39 100 E1          N/A
Suffern          N/A     39  39 100 CALM        N/A
Poughkeepsie   FOG       38  37  97 SE3       30.29F VSB 1/2
Albany         LGT RAIN  43  39  86 S13       30.23S
$$

NJZ001-105-106-008-010-013-015-019>022-104-200600-
New Jersey

CITY           SKY/WX    TMP DP  RH WIND       PRES   REMARKS
Newark/Liberty DRZL/FOG  46  46 100 CALM      30.31F VSB 1/4
Teterboro      DRZL/FOG  45  45 100 CALM      30.30F VSB 1/4
Caldwell       FOG       41  41 100 CALM      30.31F VSB 1/2
Somerville     FOG       39  39 100 CALM      30.31F VSB 3/4
Linden         FOG       45  44  95 CALM      30.32F VSB 3/4
Perth Amboy      N/A     45 N/A N/A SW1         N/A
Sussex         FOG       39  39 100 CALM      30.30S VSB 1/2
Andover          N/A     38  38 100 CALM      30.31S
Trenton        FOG       47  46  97 CALM      30.31F VSB 1/4
Millville      CLOUDY    50  49  96 S3        30.35F FOG
Atlantic City  CLOUDY    51  51 100 S8        30.35F FOG
Wrightstown    CLOUDY    53  53  99 SW8       30.29
Toms River     FOG       52  51  97 SW7       30.34F VSB 3/4
Belmar         LGT RAIN  52  52 100 S8        30.33F VSB 3/4
$$

PAZ047>061-062-071-200600-
Eastern Pennsylvania

CITY           SKY/WX    TMP DP  RH WIND       PRES   REMARKS
Philadelphia   FOG       48  48 100 SW6       30.34S VSB 1/4
Allentown      FOG       37  35  92 CALM      30.32S VSB 1/4
Scranton       FAIR      41  40  96 SW3       30.27R
$$

CTZ002-004>006-009-010-012-RIZ004-006-007-MAZ004-011-015-200600-
Southern New England

 In CT

CITY           SKY/WX    TMP DP  RH WIND       PRES   REMARKS
Bradley Intl   CLOUDY    45  45 100 S7        30.29F FOG
Hartford       CLOUDY    48  47  96 S6        30.29F FOG
Danbury        FOG      N/A N/A N/A VRB3      30.31F VSB 1
Wtrbury/Oxford LGT RAIN  44  44 100 S6        30.29F VSB 1/2
Norwalk Harbor   N/A     41 N/A N/A E3          N/A
Bridgeport     FOG       44  42  93 SE5       30.31F VSB 1/4
Meriden        FOG       45  45 100 S6        30.30F VSB 3/4
New Haven      FOG       45  43  93 SE5       30.31F VSB 1/2
Chester        CLOUDY    48  48 100 VRB7G14   30.31F FOG
Groton         CLOUDY    48  47  96 SW6       30.33F FOG
Willimantic    LGT RAIN  51  49  92 VRB5      30.31F FOG

 In RI

CITY           SKY/WX    TMP DP  RH WIND       PRES   REMARKS
Providence     CLOUDY    51  50  96 SW15      30.34S
Block Island   CLOUDY    47  46  97 SW9       30.36S
Westerly       CLOUDY    48  48 100 SW6       30.35F FOG

In MA

CITY           SKY/WX    TMP DP  RH WIND       PRES   REMARKS
Boston         LGT RAIN  50  48  93 SW18      30.28F
Worcester      RAIN      47  46  97 SW20G26   30.26F FOG
Westfield      CLOUDY    43  43 100 S9        30.27F
Provincetown   CLOUDY    45  44  97 SW20G31   30.32F
Nantucket      LGT RAIN  45  45 100 S10       30.37F
$$

ANZ330-335-338-340-345-350-353-355-200600-
Coastal Marine Observations


STATION/POSITION TIME  SKY/WX   TEMP    WIND        PRES    VSBY  WAVE
                                AIR SEA DIR/SP/G                  HT/PER
                 (UTC)          (F)     (DEG/KT/KT) (MB)    (MI)  (FT/S)
NY Harb Entrance 0450            44 39  200/ 14/ 16 1026.4          3/11
20 S Fire Island 0450            47 42  210/ 16/ 17 1027.2          4/10
15 E Barnegat Li 0430               41                N/A           4/ 4
Hudson Canyon    0450            52 46  190/ 17/ 19 1028.5          4/12
Kings Point      0430            44 37  200/  4/  5 1027.6
Execution Rocks  NOT AVBL
Western LI Sound NOT AVBL
Central LI Sound 0445            43     360/  2/  2   N/A           1
Robbins Reef     0442            46      CALM  /  1 1027.3
$$


>>>>>>>>>>>>>>>>>>>>>>>>>>>> KEY <<<<<<<<<<<<<<<<<<<<<<<<<<<
>                                                          <
>     SKY/WX - Sky Condition/Present Weather               <
>     TMP    - Temperature in Fahrenheit                   <
>     DP     - Dew Point in Fahrenheit                     <
>     RH     - Relative Humidity in Percent                <
>     WIND   - Direction (from) and Speed in MPH           <
>     PRES   - Mean Sea Level Pressure (inches of Hg)      <
>     WCI    - Wind Chill Index                            <
>     VSB    - Visibility in Miles                         <
>     HX     - Heat Index                                  <
>     TC     - Temperature in Celsius                      <
>     VRB    - Varibale Wind Direction                     <
>                                                          <
>>>>>>>>>>>>>>>>>>>>>>>>>>>> KEY <<<<<<<<<<<<<<<<<<<<<<<<<<<




USA.gov is the U.S. government's official web portal to all federal, state and local government web resources and services.